STARLINK-30545

operational
NORAD ID: 58000 Int'l Des: 2023-153 Owner: SPXS Country: US Constellation: starlink
LEOCIRCULAR

STARLINK-30545について

説明を読み込み中...

リアルタイム位置

3D地球を読み込み中...

次回通過

高度履歴

Altitude vs Time

uPlot chart will show altitude changes over time

軌道要素

1 58000U 23153K 25251.92279360 -.00000213 00000-0 -68171-6 0 9997
2 58000 43.0060 336.4428 0001402 271.7900 88.2782 15.02527536107538
Epoch: Sep 8, 2025 • Age: 12 hours

現在のステータス

高度 561.4 km
速度 7.58 km/s
衛星直下点 -13.69°S, 27.02°E
打ち上げ日 Oct 5, 2023
運用期間 1.9 years
タイプ internet

技術仕様

分類 Payload
質量 730.00 kg
乾燥質量 700.00 kg
総質量 730.00 kg
長さ 0.30 m
直径 4.10 m
スパン 29.00 m
形状 Box + pan
製造者 SPXS
バスタイプ Starlink V2M
フェーズステータス In Orbit
所有者/国 SPXS/US

大規模コンステレーション

Loading constellations...